CW9461 Weather Reports


Display with metric or nautical units.
time (UTC)temp
F
wind
direction
speed
MPH
gust
MPH
rain 1hr
in
rain 24hr
in
rain mn
in
humidity
%
barometer
mb
20260506175106 66 208 2.0 5.0 0.00 0.00 0.00 67 1011.2
20260506174606 66 255 2.0 6.0 0.00 0.00 0.00 67 1010.9
20260506174105 66 217 3.0 8.0 0.00 0.00 0.00 67 1011.2
20260506173604 66 292 2.0 6.0 0.00 0.00 0.00 67 1011.2
20260506173104 67 273 2.0 6.0 0.00 0.00 0.00 67 1010.9
20260506172105 66 277 2.0 5.0 0.00 0.00 0.00 68 1011.2
20260506171604 66 278 1.0 3.0 0.00 0.00 0.00 69 1011.2
20260506171106 66 218 2.0 5.0 0.00 0.00 0.00 69 1011.2
20260506170604 65 187 1.0 3.0 0.00 0.00 0.00 70 1011.2
20260506170104 65 172 1.0 5.0 0.00 0.00 0.00 70 1011.2
20260506165604 65 157 1.0 3.0 0.00 0.00 0.00 70 1011.2
20260506165104 65 157 3.0 5.0 0.00 0.00 0.00 70 1011.2
20260506164605 65 157 0.0 5.0 0.00 0.00 0.00 71 1011.2
20260506164104 64 156 2.0 2.0 0.00 0.00 0.00 73 1011.2
20260506163104 63 227 3.0 6.0 0.00 0.00 0.00 74 1011.2
20260506162605 63 220 2.0 6.0 0.00 0.00 0.00 75 1011.2
20260506161604 61 180 1.0 3.0 0.00 0.00 0.00 77 1011.5
20260506161106 61 225 1.0 3.0 0.00 0.00 0.00 77 1011.5
20260506160606 61 202 1.0 2.0 0.00 0.00 0.00 78 1011.2
20260506160105 60 120 1.0 2.0 0.00 0.00 0.00 78 1011.2
20260506154104 59 157 1.0 6.0 0.00 0.00 0.00 79 1011.5
20260506153604 59 121 1.0 6.0 0.00 0.00 0.00 80 1011.5
20260506153104 59 207 1.0 5.0 0.00 0.00 0.00 80 1011.5
20260506152104 58 157 1.0 3.0 0.00 0.00 0.00 81 1011.5
20260506151604 58 147 1.0 8.0 0.00 0.00 0.00 82 1011.5
20260506150604 57 112 1.0 2.0 0.00 0.00 0.00 84 1011.5
20260506150104 56 157 2.0 6.0 0.00 0.00 0.00 84 1011.2
20260506145604 56 141 2.0 3.0 0.00 0.00 0.00 84 1011.5
20260506145104 56 139 1.0 3.0 0.00 0.00 0.00 84 1011.2
20260506144604 56 135 2.0 2.0 0.00 0.00 0.00 85 1011.2
20260506144105 56 138 1.0 3.0 0.00 0.00 0.00 85 1011.2
20260506143604 56 135 1.0 2.0 0.00 0.00 0.00 84 1011.2
20260506142604 56 135 1.0 3.0 0.00 0.00 0.00 84 1011.2
20260506142104 56 135 0.0 2.0 0.00 0.00 0.00 84 1011.2
20260506141604 56 135 0.0 2.0 0.00 0.00 0.00 84 1011.2
20260506141104 56 135 1.0 2.0 0.00 0.00 0.00 84 1010.8
20260506140605 56 135 1.0 2.0 0.00 0.00 0.00 84 1011.1
20260506140106 56 113 1.0 2.0 0.00 0.00 0.00 84 1010.8
20260506135604 56 112 1.0 2.0 0.00 0.00 0.00 84 1010.8
20260506135104 56 150 2.0 5.0 0.00 0.00 0.00 84 1010.8
20260506134604 55 135 2.0 2.0 0.00 0.00 0.00 84 1010.6
20260506133604 55 157 1.0 2.0 0.00 0.00 0.00 84 1010.8
20260506133104 55 135 1.0 2.0 0.00 0.00 0.00 84 1010.8
20260506132604 55 135 0.0 1.0 0.00 0.00 0.00 84 1010.5
20260506132104 55 157 0.0 0.0 0.00 0.00 0.00 84 1010.5
20260506131604 55 157 0.0 0.0 0.00 0.00 0.00 84 1010.8
20260506131105 55 157 0.0 0.0 0.00 0.00 0.00 84 1010.5
20260506130604 55 157 0.0 0.0 0.00 0.00 0.00 84 1010.5
20260506130105 55 157 0.0 0.0 0.00 0.00 0.00 84 1010.5
20260506125105 55 180 0.0 0.0 0.00 0.00 0.00 84 1010.5
20260506124604 55 112 0.0 0.0 0.00 0.00 0.00 84 1010.2
20260506124104 56 157 0.0 0.0 0.00 0.00 0.00 84 1010.2
20260506123104 56 135 0.0 0.0 0.00 0.00 0.00 83 1010.2
20260506122605 56 135 1.0 1.0 0.00 0.00 0.00 83 1010.5
20260506121604 56 149 1.0 2.0 0.00 0.00 0.00 83 1010.5
20260506120104 56 202 0.0 0.0 0.00 0.00 0.00 83 1010.5
20260506115104 56 135 0.0 0.0 0.00 0.00 0.00 82 1010.2
20260506114604 56 135 0.0 0.0 0.00 0.00 0.00 82 1010.2
20260506114104 56 135 0.0 0.0 0.00 0.00 0.00 82 1010.2
20260506113104 56 135 0.0 2.0 0.00 0.00 0.00 82 1010.2
20260506112603 56 155 0.0 3.0 0.00 0.00 0.00 82 1009.9
20260506112104 56 157 1.0 2.0 0.00 0.00 0.00 82 1010.2
20260506111604 56 176 1.0 2.0 0.00 0.00 0.00 82 1010.2
20260506111104 56 157 0.0 2.0 0.00 0.00 0.00 82 1009.9
20260506110604 56 157 1.0 2.0 0.00 0.00 0.00 82 1009.8
20260506110104 56 135 1.0 1.0 0.00 0.00 0.00 82 1009.8
20260506105604 56 135 1.0 3.0 0.00 0.00 0.00 82 1009.8
20260506105104 56 135 2.0 2.0 0.00 0.00 0.00 82 1009.8
20260506104605 56 150 1.0 2.0 0.00 0.00 0.00 82 1009.8
20260506104105 56 135 1.0 3.0 0.00 0.00 0.00 82 1009.8
20260506103604 56 135 2.0 2.0 0.00 0.00 0.00 82 1009.8
20260506103104 56 153 1.0 3.0 0.00 0.00 0.00 82 1009.8
20260506102604 56 151 1.0 2.0 0.00 0.00 0.00 83 1009.8
20260506102104 56 140 2.0 3.0 0.00 0.00 0.00 83 1009.8
20260506101605 56 161 1.0 2.0 0.00 0.00 0.00 83 1009.5
20260506101104 56 147 0.0 2.0 0.00 0.00 0.00 83 1009.8
20260506100604 56 157 0.0 1.0 0.00 0.00 0.00 83 1009.5
20260506100103 56 113 1.0 3.0 0.00 0.00 0.00 83 1009.5
20260506095604 56 158 1.0 3.0 0.00 0.00 0.00 84 1009.5
20260506095104 56 135 0.0 0.0 0.00 0.00 0.00 84 1009.5
20260506094604 56 157 0.0 0.0 0.00 0.00 0.00 84 1009.5
20260506094104 55 157 0.0 0.0 0.00 0.00 0.00 84 1009.5
20260506093605 55 202 0.0 0.0 0.00 0.00 0.00 84 1009.5
20260506092603 55 62 0.0 1.0 0.00 0.01 0.00 84 1009.8
20260506092104 55 101 0.0 2.0 0.00 0.01 0.00 84 1009.5
20260506091604 55 137 1.0 2.0 0.00 0.01 0.00 84 1009.8
20260506090604 55 92 1.0 3.0 0.00 0.01 0.00 84 1009.5
20260506085604 55 112 1.0 2.0 0.00 0.01 0.00 84 1009.8
20260506085103 55 135 0.0 2.0 0.00 0.01 0.00 84 1009.8
20260506084103 55 135 0.0 2.0 0.00 0.02 0.00 84 1009.8
20260506083604 55 157 1.0 2.0 0.00 0.02 0.00 84 1009.8
20260506083103 55 157 0.0 2.0 0.00 0.03 0.00 84 1009.8
20260506082604 55 157 0.0 1.0 0.00 0.03 0.00 84 1009.8
20260506082105 55 152 1.0 3.0 0.00 0.03 0.00 84 1009.5
20260506081604 55 154 1.0 3.0 0.00 0.03 0.00 84 1009.8
20260506081104 55 135 1.0 2.0 0.00 0.03 0.00 84 1009.8
20260506080104 55 157 1.0 3.0 0.00 0.03 0.00 84 1009.8
20260506073105 55 135 1.0 3.0 0.00 0.07 0.00 85 1009.4
20260506072104 55 157 0.0 2.0 0.00 0.08 0.00 86 1009.5
20260506071604 54 112 1.0 2.0 0.00 0.09 0.00 86 1009.5
20260506071105 54 112 0.0 2.0 0.00 0.10 0.00 87 1009.5
20260506070104 54 157 0.0 1.0 0.00 0.10 0.00 87 1009.1
20260506062103 55 112 0.0 2.0 0.00 0.12 0.11 86 1008.9
20260506061605 55 148 1.0 3.0 0.00 0.12 0.11 86 1008.8
20260506060106 55 112 0.0 0.0 0.00 0.12 0.11 85 1008.8
20260506051106 56 90 0.0 1.0 0.00 0.15 0.11 85 1008.5
20260506050605 56 191 1.0 3.0 0.00 0.16 0.11 85 1008.5
20260506050105 56 157 0.0 3.0 0.00 0.16 0.11 85 1008.4
20260506045105 56 112 0.0 2.0 0.00 0.16 0.11 84 1008.5
20260506044605 56 135 0.0 2.0 0.00 0.17 0.11 84 1008.1
20260506043605 57 180 1.0 3.0 0.00 0.18 0.11 83 1008.1
20260506043106 57 112 0.0 2.0 0.00 0.18 0.11 83 1008.1
20260506042606 57 154 0.0 1.0 0.00 0.19 0.11 83 1007.9
20260506042105 57 94 1.0 2.0 0.00 0.19 0.11 82 1007.8
20260506041605 57 129 1.0 2.0 0.00 0.19 0.11 82 1007.8
20260506041106 58 202 1.0 2.0 0.00 0.20 0.11 82 1007.8
20260506040605 58 115 1.0 2.0 0.00 0.20 0.11 81 1007.8
20260506035105 58 202 1.0 3.0 0.00 0.20 0.11 80 1007.8
20260506034606 58 157 0.0 2.0 0.00 0.20 0.11 80 1007.5
20260506034105 58 138 1.0 3.0 0.00 0.20 0.11 80 1007.5
20260506033106 58 202 0.0 1.0 0.00 0.20 0.11 79 1007.5
20260506032105 59 247 0.0 3.0 0.00 0.20 0.11 78 1007.1
20260506031605 59 247 1.0 2.0 0.00 0.20 0.11 77 1007.1
20260506030605 59 247 0.0 2.0 0.00 0.20 0.11 77 1006.8
20260506030105 59 202 1.0 2.0 0.00 0.20 0.11 76 1006.8
20260506025605 60 247 1.0 2.0 0.00 0.20 0.11 76 1006.8
20260506025105 60 202 0.0 2.0 0.00 0.20 0.11 75 1006.8
20260506024606 60 231 1.0 2.0 0.00 0.20 0.11 75 1006.8
20260506024105 60 162 0.0 2.0 0.00 0.20 0.11 75 1006.8
20260506023105 60 225 1.0 3.0 0.00 0.20 0.11 74 1006.7
20260506022606 61 118 0.0 1.0 0.00 0.20 0.11 74 1006.5
20260506022106 61 193 0.0 3.0 0.00 0.20 0.11 73 1006.4
20260506021605 61 208 2.0 5.0 0.00 0.20 0.11 73 1006.4
20260506021105 62 228 2.0 3.0 0.00 0.20 0.11 73 1006.4
20260506020606 62 212 0.0 3.0 0.00 0.20 0.11 72 1006.3
20260506020105 62 157 0.0 0.0 0.00 0.20 0.11 72 1006.4
20260506015607 63 205 0.0 2.0 0.00 0.20 0.11 71 1006.4
20260506015107 63 157 1.0 2.0 0.00 0.20 0.11 71 1006.4
20260506014607 63 225 0.0 2.0 0.00 0.20 0.11 70 1006.1
20260506014106 63 158 0.0 3.0 0.00 0.20 0.11 70 1006.1
20260506013605 64 157 1.0 2.0 0.00 0.20 0.11 70 1006.1
20260506012605 64 194 1.0 3.0 0.00 0.20 0.11 71 1006.1
20260506011605 63 180 1.0 7.0 0.00 0.20 0.11 70 1006.1
20260506011105 63 153 2.0 6.0 0.00 0.20 0.11 69 1006.0
20260506010605 64 121 3.0 5.0 0.00 0.20 0.11 69 1006.1
20260506010105 64 130 2.0 6.0 0.00 0.20 0.11 70 1005.9
20260506005605 64 153 3.0 9.0 0.00 0.20 0.11 69 1005.9
20260506005105 64 112 2.0 6.0 0.00 0.20 0.11 69 1005.8
20260506004606 64 118 3.0 6.0 0.00 0.20 0.11 69 1005.8
20260506004105 64 138 2.0 5.0 0.00 0.20 0.11 70 1005.8
20260506003605 64 138 2.0 5.0 0.00 0.20 0.11 71 1005.8
20260506003106 64 156 2.0 5.0 0.00 0.20 0.11 71 1005.8
20260506002605 64 202 1.0 3.0 0.00 0.20 0.11 71 1005.8
20260506002104 64 152 1.0 3.0 0.00 0.20 0.11 72 1005.8
20260506001604 64 217 1.0 5.0 0.00 0.20 0.11 71 1005.8
20260506001105 64 135 2.0 6.0 0.00 0.20 0.11 71 1005.8
20260506000105 64 190 2.0 6.0 0.00 0.20 0.11 71 1005.6
20260505235605 64 174 1.0 5.0 0.00 0.20 0.11 71 1005.8
20260505235106 64 199 2.0 5.0 0.00 0.20 0.11 71 1005.8
20260505234605 63 159 3.0 5.0 0.00 0.20 0.11 71 1005.8
20260505234104 63 223 1.0 5.0 0.00 0.20 0.11 71 1005.8
20260505233605 63 116 1.0 5.0 0.00 0.20 0.11 71 1005.8
20260505233105 63 176 2.0 3.0 0.00 0.20 0.11 71 1005.8
20260505232105 64 190 2.0 3.0 0.00 0.20 0.11 71 1005.8
20260505231106 64 246 0.0 3.0 0.00 0.20 0.11 71 1006.0
20260505230605 64 171 1.0 2.0 0.00 0.20 0.11 72 1005.9
20260505230106 63 170 0.0 2.0 0.00 0.20 0.11 72 1006.1
20260505225606 63 157 0.0 1.0 0.00 0.20 0.11 71 1005.9
20260505225105 63 157 1.0 2.0 0.00 0.20 0.11 71 1005.8
20260505224605 63 120 1.0 3.0 0.00 0.20 0.11 72 1006.1
20260505223605 63 247 1.0 3.0 0.00 0.20 0.11 72 1006.1
20260505222605 63 196 1.0 3.0 0.00 0.20 0.11 71 1006.1
20260505222105 63 147 2.0 3.0 0.00 0.20 0.11 70 1006.1
20260505221605 64 163 2.0 5.0 0.00 0.20 0.11 70 1006.1
20260505221105 64 187 2.0 5.0 0.00 0.20 0.11 70 1006.1
20260505220605 64 112 2.0 3.0 0.00 0.20 0.11 70 1006.1
20260505220105 64 143 1.0 3.0 0.00 0.20 0.11 70 1006.1
20260505215605 64 228 1.0 3.0 0.00 0.20 0.11 70 1006.1
20260505215105 63 157 2.0 3.0 0.00 0.20 0.11 70 1006.1
20260505214604 63 202 0.0 5.0 0.00 0.20 0.11 70 1006.1
20260505213604 63 160 2.0 5.0 0.00 0.20 0.11 69 1006.1
20260505213105 63 225 1.0 6.0 0.00 0.20 0.11 69 1006.1
20260505212605 63 242 2.0 3.0 0.00 0.20 0.11 69 1006.1
20260505212106 63 228 2.0 6.0 0.00 0.20 0.11 69 1006.1
20260505211605 63 281 2.0 5.0 0.00 0.20 0.11 69 1006.1
20260505211105 64 300 2.0 5.0 0.00 0.20 0.11 69 1006.1
20260505210604 64 292 2.0 5.0 0.00 0.20 0.11 69 1006.1
20260505210106 64 242 2.0 5.0 0.00 0.20 0.11 69 1006.1
20260505205606 64 283 2.0 5.0 0.00 0.20 0.11 69 1006.1
20260505205105 64 257 1.0 3.0 0.00 0.20 0.11 69 1006.1
20260505204604 63 224 2.0 5.0 0.00 0.20 0.11 69 1006.2
20260505204105 63 164 1.0 7.0 0.00 0.20 0.11 70 1006.1
20260505203605 63 239 3.0 6.0 0.00 0.20 0.11 70 1006.3
20260505203105 63 337 1.0 6.0 0.00 0.20 0.11 71 1006.4
20260505202104 63 268 3.0 6.0 0.00 0.20 0.11 71 1006.4
20260505201604 62 292 2.0 5.0 0.00 0.20 0.11 72 1006.2
20260505201105 62 252 4.0 7.0 0.00 0.20 0.11 72 1006.4
20260505200606 62 253 2.0 6.0 0.00 0.20 0.11 73 1006.4
20260505200105 62 279 3.0 6.0 0.00 0.20 0.11 73 1006.4
20260505195605 62 276 2.0 6.0 0.00 0.20 0.11 74 1006.4
20260505195105 62 264 3.0 8.0 0.00 0.20 0.11 74 1006.8
20260505194606 61 259 3.0 7.0 0.00 0.20 0.11 74 1006.4
20260505194106 61 253 3.0 10.0 0.00 0.20 0.11 75 1006.7
20260505193604 61 235 3.0 8.0 0.00 0.20 0.11 75 1006.4
20260505193105 61 243 4.0 9.0 0.00 0.20 0.11 75 1006.8
20260505192105 61 268 3.0 5.0 0.00 0.20 0.11 75 1006.8
20260505191605 61 241 2.0 6.0 0.00 0.20 0.11 76 1006.7
20260505191104 61 288 3.0 7.0 0.00 0.20 0.11 77 1006.6
20260505190604 60 267 2.0 7.0 0.00 0.20 0.11 78 1006.8
20260505190105 60 240 3.0 6.0 0.00 0.20 0.11 78 1006.4
20260505185605 60 288 2.0 7.0 0.00 0.20 0.11 77 1006.4
20260505184606 60 240 2.0 6.0 0.00 0.20 0.11 79 1006.6
20260505184105 59 278 3.0 8.0 0.00 0.20 0.11 80 1006.8
20260505183604 59 279 2.0 6.0 0.00 0.20 0.11 81 1006.4
20260505183105 59 259 2.0 7.0 0.00 0.20 0.11 81 1006.6
20260505182605 59 283 3.0 6.0 0.00 0.20 0.11 82 1006.8
20260505181605 58 249 3.0 7.0 0.00 0.20 0.11 83 1006.6
20260505180605 58 247 3.0 7.0 0.00 0.20 0.11 85 1006.8
20260505180105 58 255 4.0 8.0 0.00 0.20 0.11 85 1006.4
20260505175605 58 274 5.0 9.0 0.00 0.20 0.11 86 1006.6